THORAD DELTA 1 DEB, 8307

Orbit data source: Space-Track

THORAD DELTA 1 DEB, 8307 is space debris in LEO originally from a launch on Fri, 15 Nov 1974 UTC launched from the Air Force Western Test Range (AFWTR). Debris objects in space refer to the collection of defunct objects orbiting the Earth. Examples of debris include non-operational satellites, rocket bodies, and fragments generated from explosions, collisions, or faulty payload assembly.

Loading next visibility...
Identifier
8307, 1974-089BQ
Orbit
LEO
Country
Flag of USUS
Related business
Manufacturer
Unknown
Mission
Spacecraft
Bus & Motor
Unknown
Mass
Unknown
Launch date (UTC)
1974-11-15 (51 years ago)
Launch vehicle
Unknown
Launch site
Air Force Western Test Range (AFWTR)
Object type
Payload
Rocket body
Debris
Shape & HBR
Unknown shape, 0.1 m
Radar Cross Section
Medium (>0.1 m² and <1 m²)

Expand to show TLE details & history
Last TLE update: 9 hours ago

TLE from 9 hours ago
0 THORAD DELTA 1 DEB
1 08307U 74089BQ  25287.87049713  .00000244  00000-0  35454-2 0  9992
2 08307 101.1830  16.6104 0452516 356.2409  72.0196 11.75239335184483
Epoch: 2025-10-14T20:53Z
TLE epoch observation values (Epoch: 2025-10-14T20:53:30.952Z)
Latitude
70.04064°
Longitude
6.77507°
Altitude
1,706.904 km
Speed
7.071 km/s
True Right ascension
22h 55m 13s
True Declination
69° 56' 35"
Sunlit
Object was in daylight at epoch
Visualization orbit readout
Latitude
Unknown
Longitude
Unknown
Altitude
Unknown
Speed
Unknown
Apparent Right ascension
Unknown
Apparent Declination
Unknown
Sunlit
N/A
Visualization observer readout
Local Sidereal Time
00:34:22
Azimuth
Unknown
Elevation
Unknown
Doppler factor
Unknown
Orbital elements
Apogee altitude
2,160.947 km
Perigee altitude
1,421.59 km
Semi-major axis
8,169.406 km
Eccentricity
0.04525
Inclination
101.183°
RAAN
16.6104°
Arg. of periapsis
356.2409°
True anomaly
77.03297°
Mean anomaly
72.0196°
Eccentric anomaly
74.51825°
Mean motion
2.93939 °/min
Orbital period
122.47 mins
BSTAR
0.0035454
Loading maneuver chart data...
Computing Atmospheric mass density...

Documentation

Showing up to 5 results
|